Location: St Paul
(44.9440°N, 93.0930°W)
Time: 18:57:04
(UTC-06:00)

N. Korean satellite - Visible Passes

Search period start: 22 February 2018 00:00
Search period end: 04 March 2018 00:00
Orbit: 459 x 514 km, 97.2° (Epoch: 21 February)

Date Brightness Start Highest point End Pass type
(mag) Time Alt. Az. Time Alt. Az. Time Alt. Az.
22 Feb 9.9 19:00:14 10° SW 19:02:32 17° W 19:04:53 10° NW visible
23 Feb 8.8 06:24:02 10° NNE 06:27:23 32° E 06:30:45 10° SSE visible
23 Feb 8.7 18:35:31 10° SSW 18:38:39 32° W 18:41:49 10° NNW visible
24 Feb 10.1 06:00:57 10° NE 06:03:30 18° E 06:06:04 10° SE visible
26 Feb 9.9 18:58:35 10° SW 19:01:00 18° W 19:03:26 10° NW visible
27 Feb 8.6 18:33:54 10° SSW 18:37:05 33° W 18:40:20 10° NNW visible
28 Feb 10.1 05:59:27 10° NE 06:01:59 17° E 06:04:30 10° SE visible
02 Mar 9.8 18:56:54 10° SW 18:59:24 18° W 19:01:57 10° NW visible
03 Mar 8.5 18:32:15 10° SSW 18:35:29 35° W 18:38:48 10° NNW visible
